Perkinsville, VT

10:05 PM EST on February 19, 2017 (GMT -0500)
Hartness State

Weather History for KVSF - August, 2014

Change the Weather History Date:

Wednesday, August 13, 2014

  Actual Average Record
Temperature  
Mean Temperature 63 °F 68 °F  
Max Temperature 69 °F 80 °F 89 °F (2005)
Min Temperature 57 °F 56 °F 42 °F (2006)
Degree Days  
Heating Degree Days 2 1  
Month to date heating degree days 5 13  
Since 1 June heating degree days 70 126  
Since 1 July heating degree days 12 30  
Cooling Degree Days 0 4  
Month to date cooling degree days 36 52  
Year to date cooling degree days 213 267  
Since 1 June cooling degree days 208 255  
Growing Degree Days 15 (Base 50)    
Moisture  
Dew Point 62 °F    
Average Humidity 87    
Maximum Humidity 100    
Minimum Humidity 73    
Precipitation  
Precipitation 1.88 in 0.10 in 1.88 in (2014)
Month to date precipitation 2.36 1.64  
Year to date precipitation 26.45 26.23  
Sea Level Pressure  
Sea Level Pressure 29.81 in    
Wind  
Wind Speed 3 mph (ENE)    
Max Wind Speed 12 mph    
Max Gust Speed 16 mph    
Visibility 5 miles    
Events Fog , Rain , Thunderstorm    
T = Trace of Precipitation, MM = Missing Value Source: NWS Daily Summary

Daily Weather History Graph

Daily Weather History Graph

Search for Another Location

Airport or City:

Trip Planner

Search our weather history database for the weather conditions in past years. The results will help you decide how hot, cold, wet, or windy it might be!

Date:

Astronomy

Aug. 13, 2014 Rise Set
Actual Time 5:53 AM EDT 7:56 PM EDT
Civil Twilight 5:21 AM EDT 8:27 PM EDT
Nautical Twilight 4:43 AM EDT 9:05 PM EDT
Astronomical Twilight 4:01 AM EDT 9:46 PM EDT
Moon 9:31 PM EDT (8/13) 9:25 AM EDT (8/13)
Length of Visible Light 15h 05m
Length of Day
14h 03m
Waning Gibbous, 88% of the Moon is Illuminated
Aug 13
Waning Gibbous
Aug 17
Last Quarter
Aug 25
New
Sep 2
First Quarter
Sep 8
Full

Hourly Weather History & Observations

Time (EDT) Temp. Dew Point Humidity Pressure Visibility Wind Dir Wind Speed Gust Speed Precip Events Conditions
12:54 AM 68.0 °F 61.0 °F 78% 29.98 in 10.0 mi Calm Calm - N/A   Overcast
1:21 AM 68.0 °F 61.0 °F 78% 29.97 in 10.0 mi Calm Calm - N/A   Overcast
1:54 AM 66.9 °F 61.0 °F 81% 29.95 in 10.0 mi Calm Calm - N/A   Overcast
2:54 AM 69.1 °F 62.1 °F 78% 29.94 in 10.0 mi Variable 3.5 mph - N/A   Overcast
3:54 AM 69.1 °F 62.1 °F 78% 29.91 in 10.0 mi Calm Calm - N/A   Overcast
4:54 AM 69.1 °F 62.1 °F 78% 29.88 in 10.0 mi East 5.8 mph - N/A   Overcast
5:54 AM 69.1 °F 62.1 °F 78% 29.88 in 10.0 mi ESE 4.6 mph - N/A   Overcast
6:24 AM 68.0 °F 62.1 °F 81% 29.88 in 10.0 mi East 5.8 mph - N/A   Overcast
6:54 AM 69.1 °F 61.0 °F 75% 29.88 in 10.0 mi SE 9.2 mph - N/A   Overcast
8:29 AM 66.0 °F 63.0 °F 90% 29.87 in 3.0 mi Calm Calm - 0.04 in Rain Light Rain
9:34 AM 66.0 °F 64.0 °F 93% 29.87 in 2.0 mi SE 4.6 mph - 0.06 in Rain Light Rain
9:42 AM 66.0 °F 64.0 °F 93% 29.86 in 3.0 mi Calm Calm - 0.07 in Rain Light Rain
10:20 AM 66.0 °F 64.0 °F 93% 29.86 in 2.0 mi Variable 3.5 mph - 0.06 in Rain Rain
10:36 AM 66.0 °F 63.0 °F 90% 29.86 in 4.0 mi SE 3.5 mph - 0.09 in Rain Light Rain
11:54 AM 64.9 °F 62.1 °F 90% 29.83 in 3.0 mi ESE 6.9 mph - 0.15 in Rain Rain
12:04 PM 64.9 °F 62.1 °F 90% 29.85 in 2.5 mi Variable 4.6 mph - 0.06 in Rain Heavy Rain
12:28 PM 64.0 °F 62.1 °F 93% 29.84 in 1.8 mi Variable 6.9 mph - 0.19 in Rain Heavy Rain
12:35 PM 64.0 °F 62.1 °F 93% 29.84 in 2.0 mi Variable 3.5 mph - 0.22 in Rain Heavy Rain
12:47 PM 64.0 °F 61.0 °F 90% 29.84 in 1.5 mi ESE 5.8 mph - 0.30 in Rain Heavy Rain
12:54 PM 64.0 °F 62.1 °F 93% 29.83 in 1.5 mi SE 4.6 mph - 0.34 in Rain Heavy Rain
1:11 PM 63.0 °F 62.1 °F 97% 29.83 in 0.8 mi Calm Calm - 0.15 in Rain Heavy Rain
1:20 PM 63.0 °F 62.1 °F 97% 29.82 in 0.5 mi Calm Calm - 0.27 in Fog , Rain Heavy Rain
1:35 PM 63.0 °F 62.1 °F 97% 29.80 in 1.0 mi Calm Calm - 0.42 in Rain Heavy Rain
1:43 PM 63.0 °F 62.1 °F 97% 29.80 in 0.8 mi Calm Calm - 0.49 in Rain Heavy Rain
1:45 PM 63.0 °F 62.1 °F 97% 29.80 in 1.0 mi Calm Calm - 0.51 in Rain Heavy Rain
1:54 PM 63.0 °F 62.1 °F 97% 29.79 in 1.0 mi Calm Calm - 0.57 in Rain Heavy Rain
2:01 PM 63.0 °F 62.1 °F 97% 29.79 in 0.8 mi Calm Calm - 0.11 in Rain Heavy Rain
2:12 PM 63.0 °F 61.0 °F 93% 29.78 in 1.0 mi Variable 4.6 mph - 0.22 in Rain Heavy Rain
2:19 PM 63.0 °F 61.0 °F 93% 29.77 in 2.0 mi ENE 9.2 mph - 0.25 in Rain , Thunderstorm Thunderstorms and Rain
2:25 PM 63.0 °F 61.0 °F 93% 29.77 in 3.0 mi NE 6.9 mph - 0.26 in Rain , Thunderstorm Thunderstorms and Rain
2:44 PM 64.0 °F 61.0 °F 90% 29.78 in 4.0 mi Variable 5.8 mph - 0.31 in Rain Rain
2:54 PM 63.0 °F 61.0 °F 93% 29.76 in 2.0 mi NE 8.1 mph - 0.37 in Rain Heavy Rain
3:04 PM 63.0 °F 61.0 °F 93% 29.75 in 2.5 mi Variable 5.8 mph - 0.03 in Rain Rain
3:10 PM 63.0 °F 62.1 °F 97% 29.75 in 4.0 mi NE 8.1 mph - 0.04 in Rain Light Rain
3:54 PM 63.0 °F 62.1 °F 97% 29.72 in 4.0 mi NNE 3.5 mph - 0.12 in Rain Rain
4:54 PM 63.0 °F 60.1 °F 90% 29.71 in 5.0 mi Variable 6.9 mph - 0.04 in Rain Light Rain
5:44 PM 63.0 °F 59.0 °F 87% 29.71 in 10.0 mi NNE 4.6 mph - 0.00 in   Overcast
5:51 PM 62.6 °F 59.0 °F 88% 29.71 in 10.0 mi North 3.5 mph - 0.00 in   Overcast
5:54 PM 63.0 °F 59.0 °F 87% 29.70 in 10.0 mi NNW 5.8 mph - 0.00 in   Overcast
6:54 PM 62.1 °F 60.1 °F 93% 29.70 in 7.0 mi West 4.6 mph - 0.00 in Rain Light Rain
7:54 PM 61.0 °F 60.1 °F 97% 29.72 in 5.0 mi WSW 4.6 mph - 0.02 in Rain Light Rain
8:54 PM 61.0 °F 60.1 °F 97% 29.72 in 10.0 mi Calm Calm - 0.01 in   Overcast
9:02 PM 61.0 °F 60.1 °F 97% 29.72 in 10.0 mi Calm Calm - N/A   Overcast
9:54 PM 61.0 °F 60.1 °F 97% 29.73 in 10.0 mi Calm Calm - N/A   Overcast